SL-16 DEB, 24301

Orbit data source: Space-Track

SL-16 DEB, 24301 is space debris in LEO originally from a launch on Wed, 04 Sep 1996 UTC launched from the Tyuratam Missile And Space Complex (TTMTR). Debris objects in space refer to the collection of defunct objects orbiting the Earth. Examples of debris include non-operational satellites, rocket bodies, and fragments generated from explosions, collisions, or faulty payload assembly.

Loading next visibility...
Identifier
24301, 1996-051E
Orbit
LEO
Country
Flag of CISCIS
Related business
Manufacturer
Yuzhnoe
Mission
Spacecraft
Bus & Motor
SEP MOTOR COVER, Unknown motor
Mass
~0 kg wet, ~1 kg dry
Launch date (UTC)
1996-09-04 (29 years ago)
Launch vehicle
Unknown
Launch site
Tyuratam Missile And Space Complex (TTMTR)
Object type
Payload
Rocket body
Debris
Shape & HBR
Unknown
Radar Cross Section
Small (<0.1 m²)

Expand to show TLE details & history
Last TLE update: 18 hours ago

TLE from 18 hours ago
0 SL-16 DEB
1 24301U 96051E   25261.16741072  .00000055  00000-0  92064-4 0  9990
2 24301  70.9943 323.3407 0207710 202.6919 175.5682 13.72526266453648
Epoch: 2025-09-18T04:01Z
TLE epoch observation values (Epoch: 2025-09-18T04:01:04.286Z)
Latitude
17.39826°
Longitude
-88.09563°
Altitude
1,144.913 km
Speed
7.206 km/s
True Right ascension
21h 58m 01s
True Declination
17° 18' 20"
Sunlit
Object was in full shadow at epoch
Visualization orbit readout
Latitude
Unknown
Longitude
Unknown
Altitude
Unknown
Speed
Unknown
Apparent Right ascension
Unknown
Apparent Declination
Unknown
Sunlit
N/A
Visualization observer readout
Local Sidereal Time
14:38:50
Azimuth
Unknown
Elevation
Unknown
Doppler factor
Unknown
Orbital elements
Apogee altitude
1,141.493 km
Perigee altitude
835.469 km
Semi-major axis
7,366.618 km
Eccentricity
0.02077
Inclination
70.9943°
RAAN
323.3407°
Arg. of periapsis
202.6919°
True anomaly
175.74748°
Mean anomaly
175.5682°
Eccentric anomaly
175.6583°
Mean motion
3.43274 °/min
Orbital period
104.87 mins
BSTAR
0.000092064
Loading maneuver chart data...
Computing Atmospheric mass density...
Loading historical data...
Loading historical data...
Loading historical data...
Loading historical data...
Loading historical data...
Loading historical data...
Loading historical data...

Documentation

Showing up to 5 results
|